This demonstration page uses our WeatherBlox Daily Observations layout. Learn more.

Left ArrowRight Arrow

39.92423, -83.80882

Hourly Observations for October 9, 2020

Temp ( °F °C ) Dew Point ( °F °C ) Humidity (%) Winds ( mph kmh ) Pressure ( in mb ) Visibility ( mi km ) Precip ( " mm )
12:56 am 00:56 Clear 46 7.8 44 6.7 93 93 SE 3 6 30.17 1022 10 16.0934 0 0
1:56 am 01:56 Clear 45 7.2 43 6.1 93 93 E 3 6 30.17 1022 10 16.0934 0 0
2:56 am 02:56 Clear 44 6.7 43 6.1 96 96 E 5 7 30.16 1021 10 16.0934 0 0
3:56 am 03:56 Clear 44 6.7 44 6.7 100 100 E 3 6 30.15 1021 10 16.0934 0 0
4:56 am 04:56 Clear 43 6.1 43 6.1 100 100 ESE 5 7 30.14 1021 10 16.0934 0 0
5:56 am 05:56 Clear 44 6.7 43 6.1 96 96 Calm 30.16 1021 10 16.0934 0 0
6:56 am 06:56 Clear 43 6.1 43 6.1 100 100 E 3 6 30.16 1022 10 16.0934 0 0
7:56 am 07:56 Sunny 43 6.1 43 6.1 100 100 ESE 3 6 30.17 1022 10 16.0934 0 0
8:35 am 08:35 Mostly Sunny 46 8 45 7 93 93 SSE 3 6 30.18 1022 10 16.0934 0 0
8:56 am 08:56 Sunny 52 11.1 48 8.9 86 86 SSE 6 9 30.17 1022 10 16.0934 0 0
9:56 am 09:56 Sunny 60 15.6 50 10 70 70 SSE 6 9 30.16 1022 10 16.0934 0 0
10:56 am 10:56 Sunny 68 20 49 9.4 51 51 S 5 7 30.15 1021 10 16.0934 0 0
11:56 am 11:56 Sunny 73 22.8 48 8.9 41 41 VRB 6 9 30.14 1021 10 16.0934 0 0
12:56 pm 12:56 Sunny 77 25 47 8.3 35 35 SSE 9 15 30.11 1020 10 16.0934 0 0
1:56 pm 13:56 Sunny 78 25.6 46 7.8 32 32 SSW 12 19 30.09 1019 10 16.0934 0 0
2:56 pm 14:56 Sunny 78 25.6 46 7.8 32 32 SSW 7 11 30.06 1018 10 16.0934 0 0
3:56 pm 15:56 Sunny 79 26.1 45 7.2 30 30 SSW 10 17 30.04 1017 10 16.0934 0 0
4:56 pm 16:56 Sunny 77 25 46 7.8 33 33 S 5 7 30.03 1017 10 16.0934 0 0
5:56 pm 17:56 Sunny 74 23.3 47 8.3 38 38 SSE 5 7 30.02 1017 10 16.0934 0 0
6:56 pm 18:56 Sunny 70 21.1 48 8.9 46 46 S 6 9 30.03 1017 10 16.0934 0 0
7:56 pm 19:56 Clear 67 19.4 50 10 55 55 SSE 6 9 30.03 1017 10 16.0934 0 0
8:56 pm 20:56 Clear 65 18.3 51 10.6 61 61 SSE 5 7 30.02 1017 10 16.0934 0 0
9:56 pm 21:56 Clear 66 18.9 54 12.2 65 65 S 6 9 30.01 1016 10 16.0934 0 0
10:56 pm 22:56 Clear 66 18.9 58 14.4 75 75 SSW 7 11 29.99 1016 10 16.0934 0 0
11:56 pm 23:56 Clear 65 18.3 61 16.1 87 87 SW 9 15 29.99 1016 10 16.0934 0 0

Powered by AerisWeather